STARLINK-4727, 53803

Orbit data source: Space-Track

STARLINK-4727, 53803 is a payload satellite owned by SpaceX/Seattle (US) in LEO that was launched on Sun, 11 Sep 2022 UTC via an FALCON 9 launch vehicle from the Air Force Eastern Test Range (AFETR). Payloads include a variety of satellites, spacecraft, and rockets equipped with specific instruments for various scientific and technological missions. These include communications satellites like Starlink; space stations such as the ISS; scientific satellites like the Hubble; Earth observation satellites from companies like Planet Labs, Umbra, and HawkEye 360; GPS; miniature CubeSats for education and research; and military/defense satellites.

Loading next visibility...
STARLINK-4727 details
Identifier
53803, 2022-111AG
Orbit
LEO
Last TLE update1 day ago
Origin
Flag of USSpaceX/Seattle (US)
ManufacturerSpaceX/Seattle
MissionOperational Commercial Communications
Bus & MotorSTARLINK, Unknown motor
Mass305 kg wet, ~290 kg dry
Launch date (UTC)
2022-09-11 (2 years ago)
Launch vehicle
FALCON 9
Launch site
Air Force Eastern Test Range (AFETR)
Object type
Payload
Rocket body
Debris
Shape & HBRBox + 1 Pan, 8.86 m
Radar Cross Section13.562 m², Large (>1 m²)

Expand to show TLE details & history

TLE from 1 day ago
0 STARLINK-4727
1 53803U 22111AG  24347.84977543  .00002804  00000-0  19429-3 0  9995
2 53803  53.2180 117.5518 0002169  91.2488 268.8752 15.08821540125817
Epoch: 2024-12-12T20:23Z
Definitive object data (Epoch: 2024-12-12T20:23:40.597Z)
Latitude-0.00006°
Longitude89.6084°
Altitude540.727 km
Speed7.593 km/s
True Right ascension07h 50m 12s
True Declination0° 00' 00"
Sunlit
Object was in full shadow at TLE epoch
Visualization TLE readout
Latitude-20.72043°
Longitude-78.68813°
Altitude546.129 km
Speed7.589 km/s
Apparent Right ascension22h 55m 25s
Apparent Declination-72° 07' 26"
Sunlit
Object is in daylight
Visualization observer readout
Local Sidereal Time19:40:42
Azimuth164.993° S
Elevation-27.081°
Doppler factor1
Orbital elements
Apogee altitude541.545 km
Perigee altitude538.544 km
Semi-major axis6,918.182 km
Eccentricity0.0002169
Inclination53.218°
RAAN117.5518°
Arg. of periapsis91.2488°
True anomaly268.85035°
Mean anomaly268.8752°
Eccentric anomaly268.86277°
Mean motion3.77186 °/min
BSTAR0.00019429
Orbital period95.44 mins
Loading maneuver chart data...
Loading historical data...
Loading historical data...
Loading historical data...
Loading historical data...
Loading historical data...
Loading historical data...
Loading historical data...

STARLINK-4727 Visibility forecast

Observer location: undefined°, undefined

Span
Click to sort rows by Start time (UTC) header in descending order
Start Az.
Max El. time (UTC)
Max El. Az.
Max El.
End time (UTC)
End Az.
7 mins2024-12-14 10:42:00.660Z204.2° SW2024-12-14 10:46:00.660Z118.744° SE33.632°2024-12-14 10:49:00.660Z64.582° ENE
5 mins2024-12-14 12:23:00.660Z282.38° WNW2024-12-14 12:25:00.660Z328.251° NNW27.115°2024-12-14 12:28:00.660Z28.811° NE
6 mins2024-12-14 17:24:00.660Z330.467° NNW2024-12-14 17:26:00.660Z15.749° NNE33.769°2024-12-14 17:30:00.660Z105.399° ESE
4 mins2024-12-14 19:04:00.660Z266.019° W2024-12-14 19:06:00.660Z218.977° SW23.544°2024-12-14 19:08:00.660Z181.882° SSW
|